CZ-3B DEB, 40187

Orbit data source: Space-Track

CZ-3B DEB, 40187 is space debris in HEO originally from a launch on Mon, 19 Dec 2011 UTC launched from the Xichang Space Center, China (XSC). Debris objects in space refer to the collection of defunct objects orbiting the Earth. Examples of debris include non-operational satellites, rocket bodies, and fragments generated from explosions, collisions, or faulty payload assembly.

Loading next visibility...
Identifier
40187, 2011-077L
Orbit
HEO
Country
Flag of CNCN / PRC
Related business
Manufacturer
CALT
Mission
Spacecraft
Bus & Motor
Unknown
Mass
Unknown
Launch date (UTC)
2011-12-19 (14 years ago)
Launch vehicle
Unknown
Launch site
Xichang Space Center, China (XSC)
Object type
Payload
Rocket body
Debris
Shape & HBR
Unknown
Radar Cross Section
Medium (>0.1 m² and <1 m²)

Expand to show TLE details & history
Last TLE update: 1 month ago

TLE from 1 month ago
0 CZ-3B DEB
1 40187U 11077L   25228.14813066 -.00000002  00000-0  46064-2 0  9999
2 40187  26.1070  75.0738 7360509 264.1444  15.9689  1.90933789 88781
Epoch: 2025-08-16T03:33Z
TLE epoch observation values (Epoch: 2025-08-16T03:33:18.489Z)
Latitude
-0.00054°
Longitude
57.08281°
Altitude
7,218.357 km
Speed
6.641 km/s
True Right ascension
05h 00m 47s
True Declination
0° 00' 02"
Sunlit
Object was in daylight at epoch
Visualization orbit readout
Latitude
Unknown
Longitude
Unknown
Altitude
Unknown
Speed
Unknown
Apparent Right ascension
Unknown
Apparent Declination
Unknown
Sunlit
N/A
Visualization observer readout
Local Sidereal Time
04:30:32
Azimuth
Unknown
Elevation
Unknown
Doppler factor
Unknown
Orbital elements
Apogee altitude
41,276.019 km
Perigee altitude
867.199 km
Semi-major axis
27,449.746 km
Eccentricity
0.73605
Inclination
26.107°
RAAN
75.0738°
Arg. of periapsis
264.1444°
True anomaly
95.71412°
Mean anomaly
15.9689°
Eccentric anomaly
46.62114°
Mean motion
0.47724 °/min
Orbital period
754.34 mins
BSTAR
0.0046064
Loading maneuver chart data...
Computing Atmospheric mass density...
Loading historical data...
Loading historical data...
Loading historical data...
Loading historical data...
Loading historical data...
Loading historical data...
Loading historical data...

Documentation

Showing up to 5 results
|